Weather in Yandare

Russia / Republic of Ingushetia     43°16′25″N   44°54′44″E
temp.,
°C
wind,
m/s
gust,
m/s
humid.,
%
clouds,
%
prec.,
mm/h
press.,
hPa
HPBL,
m
24 january, mon
mon2400:00−3wsw11915 0.0 101221
03:00−4w11945 0.0 101310
06:00−5sw229436 0.0 101418
09:00−1wsw12825 0.0 101594
12:00+3n21665 0.0 1015449
15:00+3w46684 0.0 1017564
18:00−1wsw3289100 0.0 101936
21:00−3wsw22905 0.0 102021
25 january, tue
tue2500:00−3wsw229270 0.0 102125
03:00−1wsw2488100 0.0 1022167
06:00−1wsw2488100 0.1 1022156
09:000wsw2386100 0.1 1024246
12:00+2wnw5680100 0.1 1024755
15:000nw458498 0.3 1025550
18:00−1nnw1295100 0.1 1027144
21:00−2sse119835 0.3 102610
26 january, wed
wed2600:00−4sse119724 0.0 102510
03:00−4sse119655 0.0 102416
06:00−3e2393100 0.0 1022283
09:00−2e249198 0.3 1022326
12:00−1e447999 0.1 1020755
15:00−1e3381100 0.1 1019714
18:00−2ese139094 0.0 1019196
21:00−3ssw0093100 0.1 101968
27 january, thu
thu2700:00−2wsw1193100 0.2 101985
03:00−3wsw2392100 0.3 1019149
06:00−3wsw2392100 0.2 101970
09:00−2w1281100 0.2 1019225
12:00+1wnw236693 0.0 1017744
15:00+1nnw2269100 0.0 1017680
18:00−2nw1195100 0.1 101981
21:00−2w2396100 0.4 1020150
28 january, fri
fri2800:00−2wsw2493100 0.1 1021138
03:00−2w1296100 0.3 1021148
06:00−3sw229287 0.3 102236
09:00−1sw127592 0.3 1022158
12:00+2e2358100 0.0 1021668
15:00+2e345915 0.0 1021671
18:00−2ese228330 0.0 102316
21:00−3se228498 0.0 102328